| time (UTC) | temp F | wind direction | speed knots | gust knots | rain 1hr in | rain 24hr in | rain mn in | humidity % | barometer mb |
| 20260504081804 | 47 | 169 | 0.0 | 1.7 | 0.00 | 0.00 | 0.00 | 68 | 1016.0 |
| 20260504081302 | 47 | 302 | 0.0 | 0.0 | 0.00 | 0.00 | 0.00 | 68 | 1016.0 |
| 20260504080305 | 47 | 197 | 0.0 | 0.0 | 0.00 | 0.00 | 0.00 | 68 | 1015.9 |
| 20260504070310 | 47 | 214 | 0.0 | 0.0 | 0.00 | 0.00 | 0.00 | 64 | 1015.4 |
| 20260504050320 | 48 | 252 | 0.0 | 0.0 | 0.00 | 0.00 | 0.00 | 57 | 1015.3 |
| 20260504045818 | 48 | 243 | 0.0 | 2.6 | 0.00 | 0.00 | 0.00 | 57 | 1015.2 |
| 20260504045320 | 48 | 108 | 0.0 | 0.0 | 0.00 | 0.00 | 0.00 | 57 | 1015.2 |
| 20260504044821 | 48 | 150 | 0.0 | 0.0 | 0.00 | 0.00 | 0.00 | 57 | 1015.2 |
| 20260504044320 | 48 | 150 | 0.0 | 0.0 | 0.00 | 0.00 | 0.00 | 57 | 1015.1 |
| 20260504043821 | 48 | 132 | 0.0 | 0.0 | 0.00 | 0.00 | 0.00 | 57 | 1015.0 |
| 20260504043322 | 48 | 132 | 0.0 | 0.0 | 0.00 | 0.00 | 0.00 | 57 | 1015.0 |
| 20260504042821 | 48 | 132 | 0.0 | 0.0 | 0.00 | 0.00 | 0.00 | 57 | 1015.0 |
| 20260504042322 | 47 | 132 | 0.0 | 0.0 | 0.00 | 0.00 | 0.00 | 57 | 1014.9 |
| 20260504041823 | 47 | 132 | 0.0 | 0.0 | 0.00 | 0.00 | 0.00 | 57 | 1014.9 |
| 20260504041322 | 47 | 132 | 0.0 | 0.0 | 0.00 | 0.00 | 0.00 | 56 | 1014.9 |
| 20260504040823 | 47 | 132 | 0.9 | 0.0 | 0.00 | 0.00 | 0.00 | 57 | 1014.9 |
| 20260504040325 | 47 | 212 | 0.0 | 0.0 | 0.00 | 0.00 | 0.00 | 57 | 1014.9 |
| 20260504035823 | 47 | 212 | 0.0 | 0.0 | 0.00 | 0.00 | 0.00 | 57 | 1014.8 |
| 20260504035324 | 47 | 305 | 0.0 | 0.0 | 0.00 | 0.00 | 0.00 | 57 | 1014.7 |
| 20260504034826 | 47 | 305 | 0.0 | 0.0 | 0.00 | 0.00 | 0.00 | 57 | 1014.6 |
| 20260504034324 | 47 | 305 | 0.0 | 0.0 | 0.00 | 0.00 | 0.00 | 56 | 1014.6 |
| 20260504033826 | 48 | 305 | 0.0 | 0.0 | 0.00 | 0.00 | 0.00 | 56 | 1014.6 |
| 20260504033327 | 48 | 305 | 0.0 | 0.0 | 0.00 | 0.00 | 0.00 | 56 | 1014.5 |
| 20260504032826 | 48 | 305 | 0.0 | 0.0 | 0.00 | 0.00 | 0.00 | 55 | 1014.6 |
| 20260504032327 | 48 | 127 | 0.0 | 0.0 | 0.00 | 0.00 | 0.00 | 55 | 1014.6 |
| 20260504031828 | 47 | 127 | 0.0 | 0.0 | 0.00 | 0.00 | 0.00 | 56 | 1014.6 |
| 20260504031327 | 47 | 127 | 0.0 | 0.0 | 0.00 | 0.00 | 0.00 | 56 | 1014.5 |
| 20260504030828 | 47 | 127 | 0.0 | 0.0 | 0.00 | 0.00 | 0.00 | 56 | 1014.5 |
| 20260504030329 | 47 | 127 | 0.0 | 0.0 | 0.00 | 0.00 | 0.00 | 57 | 1014.5 |
| 20260504025828 | 47 | 127 | 0.0 | 0.0 | 0.00 | 0.00 | 0.00 | 57 | 1014.5 |
| 20260504025329 | 47 | 188 | 0.0 | 0.0 | 0.00 | 0.00 | 0.00 | 56 | 1014.4 |
| 20260504024831 | 47 | 188 | 0.0 | 0.0 | 0.00 | 0.00 | 0.00 | 57 | 1014.5 |
| 20260504024329 | 48 | 188 | 0.0 | 0.0 | 0.00 | 0.00 | 0.00 | 56 | 1014.5 |
| 20260504023831 | 48 | 188 | 0.0 | 0.0 | 0.00 | 0.00 | 0.00 | 56 | 1014.5 |
| 20260504023332 | 48 | 188 | 0.0 | 0.0 | 0.00 | 0.00 | 0.00 | 56 | 1014.5 |
| 20260504022831 | 48 | 188 | 0.0 | 0.0 | 0.00 | 0.00 | 0.00 | 56 | 1014.5 |
| 20260504022332 | 48 | 162 | 0.0 | 0.0 | 0.00 | 0.00 | 0.00 | 55 | 1014.5 |
| 20260504021833 | 48 | 162 | 0.0 | 0.0 | 0.00 | 0.00 | 0.00 | 56 | 1014.5 |
| 20260504021332 | 48 | 180 | 0.0 | 0.0 | 0.00 | 0.00 | 0.00 | 56 | 1014.5 |
| 20260504020833 | 48 | 180 | 0.0 | 0.0 | 0.00 | 0.00 | 0.00 | 55 | 1014.5 |
| 20260504020335 | 48 | 180 | 0.0 | 0.0 | 0.00 | 0.00 | 0.00 | 56 | 1014.5 |
| 20260504015833 | 48 | 180 | 0.0 | 0.0 | 0.00 | 0.00 | 0.00 | 56 | 1014.5 |
| 20260504015335 | 48 | 180 | 0.0 | 0.0 | 0.00 | 0.00 | 0.00 | 56 | 1014.5 |
| 20260504014836 | 48 | 180 | 0.0 | 0.0 | 0.00 | 0.00 | 0.00 | 56 | 1014.5 |
| 20260504014335 | 48 | 180 | 0.0 | 0.0 | 0.00 | 0.00 | 0.00 | 55 | 1014.4 |
| 20260504013836 | 48 | 180 | 0.0 | 0.0 | 0.00 | 0.00 | 0.00 | 56 | 1014.4 |
| 20260504013337 | 48 | 180 | 0.0 | 0.0 | 0.00 | 0.00 | 0.00 | 56 | 1014.3 |
| 20260504012836 | 48 | 180 | 0.0 | 0.0 | 0.00 | 0.00 | 0.00 | 56 | 1014.3 |
| 20260504012337 | 48 | 180 | 0.0 | 0.0 | 0.00 | 0.00 | 0.00 | 55 | 1014.2 |
| 20260504011839 | 48 | 180 | 0.0 | 0.0 | 0.00 | 0.00 | 0.00 | 55 | 1014.1 |
| 20260504011337 | 48 | 180 | 0.0 | 0.0 | 0.00 | 0.00 | 0.00 | 54 | 1014.0 |
| 20260504010839 | 48 | 180 | 0.0 | 0.0 | 0.00 | 0.00 | 0.00 | 54 | 1013.9 |
| 20260504010340 | 49 | 180 | 0.0 | 0.0 | 0.00 | 0.00 | 0.00 | 54 | 1013.8 |
| 20260504005839 | 49 | 180 | 0.0 | 0.0 | 0.00 | 0.00 | 0.00 | 53 | 1013.8 |
| 20260504005340 | 49 | 180 | 0.0 | 0.0 | 0.00 | 0.00 | 0.00 | 53 | 1013.7 |
| 20260504004841 | 49 | 180 | 0.0 | 0.0 | 0.00 | 0.00 | 0.00 | 52 | 1013.7 |
| 20260504004340 | 50 | 180 | 0.0 | 0.0 | 0.00 | 0.00 | 0.00 | 52 | 1013.6 |
| 20260504003841 | 50 | 180 | 0.0 | 0.0 | 0.00 | 0.00 | 0.00 | 50 | 1013.6 |
| 20260504003342 | 51 | 180 | 0.0 | 0.0 | 0.00 | 0.00 | 0.00 | 50 | 1013.5 |
| 20260504002841 | 51 | 180 | 0.0 | 0.0 | 0.00 | 0.00 | 0.00 | 50 | 1013.5 |
| 20260504002342 | 52 | 180 | 0.0 | 0.0 | 0.00 | 0.00 | 0.00 | 49 | 1013.4 |
| 20260504001844 | 52 | 180 | 0.0 | 0.0 | 0.00 | 0.00 | 0.00 | 48 | 1013.4 |
| 20260504001342 | 53 | 180 | 0.0 | 0.0 | 0.00 | 0.00 | 0.00 | 48 | 1013.3 |
| 20260504000346 | 54 | 180 | 0.0 | 0.0 | 0.00 | 0.00 | 0.00 | 46 | 1013.3 |
| 20260503235844 | 54 | 180 | 0.0 | 0.0 | 0.00 | 0.00 | 0.00 | 44 | 1013.1 |
| 20260503235345 | 55 | 180 | 0.0 | 0.0 | 0.00 | 0.00 | 0.00 | 43 | 1013.1 |
| 20260503234846 | 55 | 180 | 0.0 | 0.0 | 0.00 | 0.00 | 0.00 | 42 | 1013.0 |
| 20260503234345 | 55 | 180 | 0.0 | 0.0 | 0.00 | 0.00 | 0.00 | 42 | 1012.9 |
| 20260503233846 | 56 | 180 | 0.0 | 0.0 | 0.00 | 0.00 | 0.00 | 41 | 1012.9 |
| 20260503233348 | 56 | 180 | 0.0 | 0.0 | 0.00 | 0.00 | 0.00 | 40 | 1012.9 |
| 20260503232845 | 56 | 180 | 0.0 | 0.0 | 0.00 | 0.00 | 0.00 | 39 | 1012.8 |
| 20260503232347 | 57 | 180 | 0.0 | 0.0 | 0.00 | 0.00 | 0.00 | 39 | 1012.7 |
| 20260503231848 | 57 | 180 | 0.0 | 0.0 | 0.00 | 0.00 | 0.00 | 38 | 1012.7 |
| 20260503231347 | 57 | 180 | 0.0 | 0.0 | 0.00 | 0.00 | 0.00 | 37 | 1012.8 |
| 20260503230848 | 57 | 180 | 0.9 | 0.0 | 0.00 | 0.00 | 0.00 | 37 | 1012.7 |
| 20260503230349 | 58 | 34 | 0.0 | 0.0 | 0.00 | 0.00 | 0.00 | 37 | 1012.8 |
| 20260503225848 | 58 | 34 | 0.0 | 0.0 | 0.00 | 0.00 | 0.00 | 35 | 1012.7 |
| 20260503225350 | 58 | 184 | 0.0 | 0.0 | 0.00 | 0.00 | 0.00 | 35 | 1012.7 |
| 20260503224851 | 58 | 41 | 0.9 | 0.0 | 0.00 | 0.00 | 0.00 | 35 | 1012.8 |
| 20260503224350 | 58 | 200 | 0.0 | 2.6 | 0.00 | 0.00 | 0.00 | 35 | 1012.7 |
| 20260503223851 | 59 | 62 | 0.0 | 0.0 | 0.00 | 0.00 | 0.00 | 34 | 1012.7 |
| 20260503223352 | 59 | 132 | 1.7 | 0.9 | 0.00 | 0.00 | 0.00 | 33 | 1012.6 |
| 20260503222851 | 59 | 245 | 2.6 | 0.0 | 0.00 | 0.00 | 0.00 | 34 | 1012.6 |
| 20260503222353 | 59 | 125 | 0.0 | 0.0 | 0.00 | 0.00 | 0.00 | 33 | 1012.6 |
| 20260503221854 | 60 | 260 | 0.9 | 0.9 | 0.00 | 0.00 | 0.00 | 33 | 1012.6 |
| 20260503221353 | 60 | 253 | 1.7 | 1.7 | 0.00 | 0.00 | 0.00 | 33 | 1012.6 |
| 20260503220854 | 60 | 51 | 0.9 | 0.0 | 0.00 | 0.00 | 0.00 | 31 | 1012.5 |
| 20260503220356 | 60 | 273 | 0.9 | 0.0 | 0.00 | 0.00 | 0.00 | 32 | 1012.4 |
| 20260503215854 | 60 | 243 | 1.7 | 3.5 | 0.00 | 0.00 | 0.00 | 31 | 1012.4 |
| 20260503215356 | 60 | 79 | 0.0 | 0.0 | 0.00 | 0.00 | 0.00 | 32 | 1012.4 |
| 20260503214857 | 60 | 238 | 1.7 | 0.0 | 0.00 | 0.00 | 0.00 | 31 | 1012.4 |
| 20260503214356 | 61 | 150 | 2.6 | 0.9 | 0.00 | 0.00 | 0.00 | 29 | 1012.3 |
| 20260503213857 | 61 | 287 | 1.7 | 2.6 | 0.00 | 0.00 | 0.00 | 31 | 1012.4 |
| 20260503213359 | 61 | 290 | 0.9 | 2.6 | 0.00 | 0.00 | 0.00 | 30 | 1012.2 |
| 20260503212857 | 62 | 219 | 0.0 | 2.6 | 0.00 | 0.00 | 0.00 | 30 | 1012.3 |
| 20260503212358 | 62 | 330 | 0.9 | 0.0 | 0.00 | 0.00 | 0.00 | 29 | 1012.3 |
| 20260503211900 | 63 | 294 | 0.0 | 0.9 | 0.00 | 0.00 | 0.00 | 29 | 1012.2 |
| 20260503211359 | 63 | 222 | 3.5 | 0.0 | 0.00 | 0.00 | 0.00 | 28 | 1012.2 |
| 20260503210900 | 63 | 215 | 0.9 | 0.9 | 0.00 | 0.00 | 0.00 | 29 | 1012.3 |
| 20260503210401 | 63 | 297 | 1.7 | 1.7 | 0.00 | 0.00 | 0.00 | 29 | 1012.3 |
| 20260503205900 | 63 | 194 | 2.6 | 0.9 | 0.00 | 0.00 | 0.00 | 29 | 1012.2 |
| 20260503205401 | 63 | 269 | 3.5 | 0.9 | 0.00 | 0.00 | 0.00 | 27 | 1012.2 |
| 20260503204903 | 63 | 259 | 1.7 | 1.7 | 0.00 | 0.00 | 0.00 | 28 | 1012.2 |
| 20260503204401 | 63 | 245 | 0.9 | 1.7 | 0.00 | 0.00 | 0.00 | 29 | 1012.1 |
| 20260503203903 | 63 | 194 | 2.6 | 0.9 | 0.00 | 0.00 | 0.00 | 29 | 1012.1 |
| 20260503203404 | 63 | 105 | 0.9 | 0.9 | 0.00 | 0.00 | 0.00 | 30 | 1012.1 |
| 20260503202903 | 63 | 293 | 2.6 | 2.6 | 0.00 | 0.00 | 0.00 | 30 | 1012.1 |
| 20260503202404 | 63 | 169 | 1.7 | 2.6 | 0.00 | 0.00 | 0.00 | 28 | 1012.1 |
| 20260503201905 | 63 | 260 | 0.9 | 0.0 | 0.00 | 0.00 | 0.00 | 30 | 1012.1 |
| 20260503201404 | 63 | 276 | 2.6 | 0.9 | 0.00 | 0.00 | 0.00 | 29 | 1012.0 |
| 20260503200905 | 63 | 280 | 0.9 | 0.0 | 0.00 | 0.00 | 0.00 | 30 | 1012.2 |
| 20260503200407 | 63 | 218 | 0.0 | 0.0 | 0.00 | 0.00 | 0.00 | 32 | 1012.2 |
| 20260503195905 | 62 | 176 | 3.5 | 2.6 | 0.00 | 0.00 | 0.00 | 32 | 1012.4 |